Weather Roundup
Issued by NWS Chicago, IL

Home | Current Version | Previous Version | Text Only | Print | Product List | Glossary Off
Versions: 1 2 3 4 5 6 7 8 9 10 11 12 13 14 15 16 17 18 19 20 21 22 23 24 25 26 27 28 29 30 31 32 33 34 35 36 37 38 39 40 41 42 43 44 45 46 47 48 49 50

000
NZUS59 KLOT 242210
HRRLOT

CHICAGO AREA WEATHER ROUNDUP
NATIONAL WEATHER SERVICE CHICAGO/ROMEOVILLE IL
400 PM CST WED DEC 24 2014

NOTE: "FAIR" INDICATES FEW OR NO CLOUDS BELOW 12,000 FEET WITH NO
SIGNIFICANT WEATHER AND/OR OBSTRUCTIONS TO VISIBILITY.

* THESE STATIONS ARE NOT UNDER NWS QUALITY CONTROL. THEY ALSO MAY NOT
  REPORT WEATHER SUCH AS PRECIPITATION OR FOG.

ILZ005-006-012>014-019>023-242300-
NORTHEAST ILLINOIS

CITY           SKY/WX    TMP DP  RH WIND       PRES   REMARKS
OHARE          CLOUDY    38  33  82 W9        29.50R
MIDWAY         LGT RAIN  40  34  79 W12       29.51R
AURORA         LGT RAIN  37  33  85 W14       29.53R FOG
LANSING*       LGT RAIN  38  36  93 W8        29.51R
JOLIET*        CLOUDY    37  34  88 W9        29.53S
WAUKEGAN       CLOUDY    37  34  89 VRB6      29.48R
DUPAGE AIRPORT CLOUDY    37  34  89 W9        29.50R
WHEELING       LGT RAIN  38  34  85 W8        29.51R
KANKAKEE*      LGT RAIN  37  35  94 W15       29.54S
MORRIS*        CLOUDY    37  36  97 W13       29.53R FOG
LEWIS AIRPORT* CLOUDY    37  35  94 W10       29.52R
NORTHERLY IS     N/A     40  33  76 W8          N/A
$$

WIZ051-052-058>065-066-070>072-242300-
SOUTHEAST WISCONSIN

CITY           SKY/WX    TMP DP  RH WIND       PRES   REMARKS
MILWAUKEE      CLOUDY    39  33  79 NW8       29.48R
KENOSHA*       CLOUDY    38  35  89 W8        29.48R
RACINE*        CLOUDY    39  33  79 W7        29.49R
BURLINGTON     CLOUDY    35  34  96 W7        29.49R WCI  29
WAUKESHA       CLOUDY    36  34  93 W12       29.48S
WEST BEND      CLOUDY    36  32  87 NW10G16   29.47S FOG
$$

INZ001>003-010>013-019-020-242300-
NORTHWEST INDIANA

CITY           SKY/WX    TMP DP  RH WIND       PRES   REMARKS
GARY*          RAIN      39  34  81 W8        29.51R
MICHIGAN CITY* NOT AVBL
RENSSELAER*    NOT AVBL
VALPARAISO     LGT RAIN  36  35  96 W20       29.50R FOG
$$

LMZ740>746-242300-
SOUTHERN LAKE MICHIGAN

STATION/POSITION TIME  SKY/WX   TEMP WIND        PRES    VSBY
                                AIR  DIR/SP/G
                 (UTC)          (F)  (DEG/KT/KT) (MB)    (MI)
HARRISON CRIB    2200            39  270/ 15/ 18   N/A
BURNHAM HARBOR   2200            40  270/  7/ 13   N/A
CALUMET HARBOR   2200            39  240/  5/  9  997.9R
BURNS HARBOR     NOT AVBL
MICHIGAN CITY    2200            37  240/ 11/ 12   N/A
$$

ABBREVIATIONS USED IN REMARKS
   TC - TEMPERATURE IN CELSIUS
  WCI - WIND CHILL INDEX
   HX - HEAT INDEX
  VSB - VISIBILITY
$$



USA.gov is the U.S. government's official web portal to all federal, state and local government web resources and services.